2018-094G (43716 NORAD) Tracking and Keplerian Element Data

This shows tracking and keplerian element data for the satellite.

Feedback or suggestion? Click here.




ElementValue
Catalog43716
Name2018-094G
Epoch Orbit305
Epoch Day344.41717725
Epoch Year2018
RAAN349.4128
Inclination97.5246
Eccentricity0.0036596
Argument of Perigee206.624
Mean Anonmoly153.312
Mean Motion15.26456394
Decay Rate2.332E-05
L11 43716U 18094G 18344.41717725 .00002332 00000-0 90738-4 0 9998
L22 43716 97.5246 349.4128 0036596 206.6240 153.3120 15.26456394 3054

Live tracking and technical data element details for 2018-094G (NORAD 43716). 2018-094G can be tracked NOW for your location showing map with azimuth and elevation plus other details from your city location.

Track the satellite on the map from your city or location and see movement details for azimuth, elevation, latitude, longitude, range, height, and movement on the map or in text.







IsCatalogInMostPopularTable: catalog: 43716, numindb: 9
Update: records affected: 1



GetName: 43716 2018-094G

Hit Count: updated at: Tue, 11 Dec 2018 02:36:20 GMT